When you browse on this site, cookies collect data to enhance your experience and personalize the content and advertising you see.
Visit our Privacy Policy to learn more. By continuing to use the site, you agree to this use of cookies and data.

Hourly Weather La Rioja

Today, 24 September, Thursday

Time Temperature Precipitation Wind Pressure Humidity
00:00 +19°C° 0 mm 2 mps 714 mmHg 42%
01:00 +18°C° 0 mm 2 mps 714 mmHg 45%
02:00 +17°C° 0 mm 2 mps 714 mmHg 48%
03:00 +17°C° 0 mm 2 mps 714 mmHg 51%
04:00 +17°C° 0 mm 2 mps 713 mmHg 55%
05:00 +16°C° 0 mm 2 mps 713 mmHg 58%
06:00 +18°C° 0 mm 2 mps 713 mmHg 52%
07:00 +21°C° 0 mm 2 mps 714 mmHg 46%
08:00 +24°C° 0 mm 3 mps 714 mmHg 38%
09:00 +26°C° 0 mm 3 mps 714 mmHg 34%
10:00 +28°C° 0 mm 3 mps 713 mmHg 31%
11:00 +29°C° 0 mm 3 mps 712 mmHg 28%
12:00 +30°C° 0 mm 3 mps 712 mmHg 26%
13:00 +31°C° 0 mm 2 mps 711 mmHg 24%
14:00 +32°C° 0 mm 2 mps 710 mmHg 22%
15:00 +32°C° 0 mm 2 mps 710 mmHg 22%
16:00 +34°C° 0 mm 2 mps 709 mmHg 22%
17:00 +34°C° 0 mm 2 mps 709 mmHg 22%
18:00 +31°C° 0 mm 2 mps 710 mmHg 28%
19:00 +28°C° 0 mm 2 mps 710 mmHg 33%
20:00 +26°C° 0 mm 2 mps 711 mmHg 39%
21:00 +25°C° 0 mm 2 mps 711 mmHg 48%
22:00 +25°C° 0 mm 2 mps 711 mmHg 57%
23:00 +24°C° 0 mm 2 mps 711 mmHg 66%

Tomorrow, 25 September, Friday

Time Temperature Precipitation Wind Pressure Humidity
00:00 +24°C° 0 mm 2 mps 711 mmHg 69%
01:00 +23°C° 0 mm 2 mps 711 mmHg 72%
02:00 +23°C° 0 mm 2 mps 711 mmHg 75%
03:00 +23°C° 0 mm 2 mps 710 mmHg 76%
04:00 +21°C° 0 mm 2 mps 710 mmHg 77%
05:00 +21°C° 0 mm 3 mps 710 mmHg 78%
06:00 +22°C° 0 mm 3 mps 710 mmHg 72%
07:00 +25°C° 0 mm 3 mps 711 mmHg 66%
08:00 +26°C° 0 mm 3 mps 711 mmHg 60%
09:00 +28°C° 0 mm 3 mps 711 mmHg 55%
10:00 +30°C° 0 mm 4 mps 711 mmHg 50%
11:00 +32°C° 0 mm 5 mps 710 mmHg 45%
12:00 +33°C° 0 mm 4 mps 709 mmHg 42%
13:00 +34°C° 0 mm 4 mps 709 mmHg 39%
14:00 +35°C° 0 mm 4 mps 708 mmHg 36%
15:00 +35°C° 0 mm 3 mps 707 mmHg 35%
16:00 +35°C° 0 mm 2 mps 707 mmHg 35%
17:00 +35°C° 0 mm 2 mps 706 mmHg 34%
18:00 +32°C° 0 mm 2 mps 706 mmHg 40%
19:00 +29°C° 0 mm 1 mps 707 mmHg 47%
20:00 +27°C° 0 mm 1 mps 707 mmHg 53%
21:00 +27°C° 0 mm 1 mps 707 mmHg 54%
22:00 +26°C° 0 mm 1 mps 707 mmHg 56%
23:00 +26°C° 0 mm 2 mps 708 mmHg 57%

Day after tomorrow, 26 September, Saturday

Time Temperature Precipitation Wind Pressure Humidity
00:00 +25°C° 0 mm 3 mps 707 mmHg 59%
01:00 +25°C° 0 mm 4 mps 707 mmHg 61%
02:00 +23°C° 0 mm 5 mps 707 mmHg 62%
03:00 +22°C° 0 mm 5 mps 707 mmHg 67%
04:00 +21°C° 0 mm 5 mps 708 mmHg 72%
05:00 +20°C° 0 mm 4 mps 708 mmHg 76%
06:00 +21°C° 0 mm 4 mps 709 mmHg 72%
07:00 +22°C° 0 mm 4 mps 709 mmHg 67%
08:00 +23°C° 0 mm 5 mps 710 mmHg 62%
09:00 +26°C° 0 mm 6 mps 710 mmHg 54%
10:00 +27°C° 0 mm 6 mps 710 mmHg 46%
11:00 +29°C° 0 mm 7 mps 710 mmHg 38%
12:00 +31°C° 0 mm 8 mps 710 mmHg 35%
13:00 +31°C° 0 mm 8 mps 709 mmHg 32%
14:00 +31°C° 0 mm 9 mps 708 mmHg 29%
15:00 +29°C° 0 mm 9 mps 709 mmHg 29%
16:00 +29°C° 0 mm 9 mps 709 mmHg 29%
17:00 +28°C° 0 mm 9 mps 709 mmHg 29%
18:00 +26°C° 0 mm 8 mps 710 mmHg 33%
19:00 +23°C° 0 mm 7 mps 711 mmHg 38%
20:00 +21°C° 0 mm 6 mps 712 mmHg 43%
21:00 +19°C° 0 mm 5 mps 713 mmHg 47%
22:00 +18°C° 0 mm 4 mps 713 mmHg 51%
23:00 +17°C° 0 mm 3 mps 714 mmHg 55%

27 September, Sunday

Time Temperature Precipitation Wind Pressure Humidity
00:00 +16°C° 0 mm 2 mps 714 mmHg 54%
01:00 +16°C° 0 mm 2 mps 714 mmHg 53%
02:00 +16°C° 0 mm 1 mps 714 mmHg 52%
03:00 +16°C° 0 mm 1 mps 714 mmHg 50%
04:00 +16°C° 0 mm 1 mps 714 mmHg 48%
05:00 +18°C° 0 mm 1 mps 715 mmHg 46%
06:00 +19°C° 0 mm 1 mps 715 mmHg 42%
07:00 +20°C° 0 mm 1 mps 716 mmHg 39%
08:00 +21°C° 0 mm 1 mps 717 mmHg 35%
09:00 +21°C° 0 mm 2 mps 717 mmHg 30%
10:00 +24°C° 0 mm 3 mps 717 mmHg 25%
11:00 +25°C° 0 mm 3 mps 716 mmHg 20%
12:00 +26°C° 0 mm 4 mps 716 mmHg 18%
13:00 +27°C° 0 mm 4 mps 715 mmHg 17%
14:00 +27°C° 0 mm 4 mps 714 mmHg 16%
15:00 +27°C° 0 mm 3 mps 714 mmHg 16%
16:00 +27°C° 0 mm 3 mps 713 mmHg 16%
17:00 +27°C° 0 mm 2 mps 713 mmHg 16%
18:00 +24°C° 0 mm 2 mps 713 mmHg 20%
19:00 +21°C° 0 mm 1 mps 714 mmHg 24%
20:00 +18°C° 0 mm 1 mps 714 mmHg 28%
21:00 +16°C° 0 mm 1 mps 714 mmHg 31%
22:00 +16°C° 0 mm 1 mps 715 mmHg 33%
23:00 +15°C° 0 mm 1 mps 715 mmHg 35%

28 September, Monday

Time Temperature Precipitation Wind Pressure Humidity
00:00 +15°C° 0 mm 1 mps 714 mmHg 37%
01:00 +14°C° 0 mm 1 mps 714 mmHg 39%
02:00 +14°C° 0 mm 2 mps 714 mmHg 40%
03:00 +13°C° 0 mm 1 mps 713 mmHg 43%
04:00 +13°C° 0 mm 1 mps 713 mmHg 46%
05:00 +12°C° 0 mm 1 mps 713 mmHg 49%
06:00 +14°C° 0 mm 1 mps 713 mmHg 43%
07:00 +16°C° 0 mm 1 mps 713 mmHg 37%
08:00 +19°C° 0 mm 2 mps 714 mmHg 32%
09:00 +20°C° 0 mm 2 mps 713 mmHg 29%
10:00 +23°C° 0 mm 2 mps 712 mmHg 27%
11:00 +25°C° 0 mm 2 mps 712 mmHg 24%
12:00 +26°C° 0 mm 3 mps 710 mmHg 22%
13:00 +28°C° 0 mm 3 mps 709 mmHg 19%
14:00 +29°C° 0 mm 4 mps 708 mmHg 17%
15:00 +29°C° 0 mm 5 mps 707 mmHg 17%
16:00 +30°C° 0 mm 6 mps 707 mmHg 17%
17:00 +30°C° 0 mm 7 mps 706 mmHg 17%
18:00 +27°C° 0 mm 5 mps 706 mmHg 23%
19:00 +23°C° 0 mm 4 mps 706 mmHg 28%
20:00 +21°C° 0 mm 2 mps 707 mmHg 34%
21:00 +19°C° 0 mm 2 mps 707 mmHg 37%
22:00 +18°C° 0 mm 2 mps 707 mmHg 40%
23:00 +17°C° 0 mm 2 mps 707 mmHg 44%

29 September, Tuesday

Time Temperature Precipitation Wind Pressure Humidity
00:00 +17°C° 0 mm 2 mps 706 mmHg 44%
01:00 +16°C° 0 mm 3 mps 706 mmHg 45%
02:00 +16°C° 0 mm 3 mps 705 mmHg 45%
03:00 +14°C° 0 mm 3 mps 705 mmHg 48%
04:00 +14°C° 0 mm 3 mps 705 mmHg 51%
05:00 +13°C° 0 mm 3 mps 705 mmHg 55%
06:00 +16°C° 0 mm 3 mps 706 mmHg 46%
07:00 +19°C° 0 mm 2 mps 706 mmHg 38%
08:00 +21°C° 0 mm 2 mps 706 mmHg 29%
09:00 +24°C° 0 mm 2 mps 706 mmHg 26%
10:00 +27°C° 0 mm 2 mps 706 mmHg 22%
11:00 +29°C° 0 mm 3 mps 706 mmHg 19%
12:00 +30°C° 0 mm 3 mps 705 mmHg 17%
13:00 +33°C° 0 mm 3 mps 704 mmHg 15%
14:00 +34°C° 0 mm 3 mps 704 mmHg 13%
15:00 +35°C° 0 mm 3 mps 704 mmHg 11%
16:00 +35°C° 0 mm 3 mps 704 mmHg 10%
17:00 +36°C° 0 mm 3 mps 704 mmHg 9%
18:00 +31°C° 0 mm 3 mps 705 mmHg 13%
19:00 +27°C° 0 mm 3 mps 705 mmHg 18%
20:00 +24°C° 0 mm 2 mps 706 mmHg 22%
21:00 +22°C° 0 mm 3 mps 706 mmHg 25%
22:00 +22°C° 0 mm 3 mps 706 mmHg 28%
23:00 +21°C° 0 mm 3 mps 707 mmHg 32%
Show more